User: anonymous   Login
Location: Sungai Laei
(2.6000°N, 113.7167°E)
Time: 07:01:18
(UTC+00:00)
Language:

Atlas Centaur 2 - Orbit

View from above orbital plane
View from above orbital plane
View from above satellite
View from above satellite

Ground track
Ground track

The orbit data is extracted from the following two-line orbital elements,

1 00694U 63047A   22228.67181487  .00000781  00000-0  85986-4 0  9993
2 00694  30.3565 217.5692 0581780 211.5436 144.9002 14.03617324948154
Epoch (UTC): 16 August 2022 16:07:24
Eccentricity: 0.0581780
inclination: 30.3565°
perigee height: 459 km
apogee height: 1303 km
right ascension of ascending node: 217.5692°
argument of perigee: 211.5436°
revolutions per day: 14.03617324
mean anomaly at epoch: 144.9002°
orbit number at epoch: 94815

The dashed part of the orbit path shows where the satellite is in the earth's shadow,  

DLR